Location: Newark
(13.8117°N, 3.6025°W)
Time: 01:32:46
(UTC+00:00)

Vanguard 3 - Visible Passes

Search period start: 22 August 2019 00:00
Search period end: 01 September 2019 00:00
Orbit: 508 x 3263 km, 33.3° (Epoch: 21 August)

Date Brightness Start Highest point End Pass type
(mag) Time Alt. Az. Time Alt. Az. Time Alt. Az.
26 Aug 9.1 20:28:23 10° N 20:28:42 10° N 20:28:42 10° N visible
28 Aug 8.7 20:11:17 10° NNW 20:13:43 15° NNE 20:13:43 15° NNE visible
29 Aug 9.1 18:56:49 10° NNW 18:59:16 13° N 19:01:22 10° NNE visible
29 Aug 9.7 21:08:27 10° NW 21:08:32 10° NW 21:08:32 10° NW visible
30 Aug 8.2 19:54:33 10° NNW 19:58:22 21° NNE 19:58:47 20° NNE visible
31 Aug 9.1 20:52:17 10° NW 20:53:39 18° NW 20:53:39 18° NW visible
